Location: Casteau
(50.5142°N, 4.0161°E)
Time: 08:14:56
(UTC+00:00)

CZ-2C R/B - Pass Details

Date: 18 September 2020
Orbit: 785 x 870 km, 98.2° (Epoch: 27 October)

Event Time Altitude Azimuth Distance (km) Brightness Sun altitude
Rises 19:15:50 0° 16° (NNE) 3,409 5.9 -14.1°
Reaches altitude 10° 19:18:14 10° 21° (NNE) 2,481 5.1 -14.5°
Maximum altitude 19:23:41 59° 101° (E) 986 2.7 -15.3°
Drops below altitude 10° 19:29:12 10° 181° (S) 2,503 4.9 -16.1°
Sets 19:31:37 0° 185° (S) 3,441 5.7 -16.5°
